This is the latest recevied weather packets stored in our database for station/object K4PAD. If no packets are shown the sender has not sent any weather packets the latest 10 day(s).
| Time | Temp. | Humidity | Pressure | Rain* | Wind** | Luminosity | Snow |
|---|---|---|---|---|---|---|---|
| 1778003697 | 29.44° C | 38% | 1018 hPa | 0 mm | - | 423 W/m² | - |
| 1778003394 | 29.44° C | 37% | 1018 hPa | 0 mm | - | 1250 W/m² | - |
| 1778003091 | 30° C | 38% | 1018 hPa | 0 mm | - | 1230 W/m² | - |
| 1778002787 | 29.44° C | 39% | 1017.9 hPa | 0 mm | - | 1194 W/m² | - |
| 1778002484 | 28.33° C | 42% | 1018.2 hPa | 0 mm | - | 1228 W/m² | - |
| 1778002181 | 27.78° C | 42% | 1018.1 hPa | 0 mm | - | 1209 W/m² | - |
| 1778001879 | 28.89° C | 40% | 1018.1 hPa | 0 mm | - | 289 W/m² | - |
| 1778001578 | 28.89° C | 38% | 1018.2 hPa | 0 mm | - | 1199 W/m² | - |
| 1778001270 | 28.33° C | 40% | 1018.1 hPa | 0 mm | - | 1222 W/m² | - |
| 1778000967 | 27.22° C | 42% | 1018.3 hPa | 0 mm | - | 1252 W/m² | - |
| 1778000663 | 27.78° C | 42% | 1018.4 hPa | 0 mm | - | 325 W/m² | - |
| 1778000359 | 28.33° C | 40% | 1018.6 hPa | 0 mm | - | 669 W/m² | - |
| 1778000055 | 28.33° C | 41% | 1018.4 hPa | 0 mm | - | 1162 W/m² | - |
| 1777999749 | 27.78° C | 41% | 1018.5 hPa | 0 mm | - | 1142 W/m² | - |
| 1777999447 | 27.78° C | 42% | 1018.6 hPa | 0 mm | - | 347 W/m² | - |
| 1777999145 | 27.78° C | 44% | 1018.4 hPa | 0 mm | - | 515 W/m² | - |
| 1777998843 | 27.78° C | 42% | 1018.5 hPa | 0 mm | - | 801 W/m² | - |
| 1777998542 | 27.78° C | 42% | 1018.3 hPa | 0 mm | - | 744 W/m² | - |
| 1777998237 | 27.22° C | 45% | 1018.7 hPa | 0 mm | - | 793 W/m² | - |
| 1777997934 | 27.22° C | 47% | 1018.8 hPa | 0 mm | - | 590 W/m² | - |
| 1777997631 | 27.22° C | 46% | 1018.7 hPa | 0 mm | - | 400 W/m² | - |
| 1777997329 | 28.33° C | 42% | 1018.7 hPa | 0 mm | - | 828 W/m² | - |
| 1777997027 | 28.33° C | 43% | 1018.7 hPa | 0 mm | - | 1029 W/m² | - |
| 1777996723 | 27.78° C | 45% | 1018.9 hPa | 0 mm | - | 1036 W/m² | - |
| 1777996419 | 27.78° C | 46% | 1018.7 hPa | 0 mm | - | 1009 W/m² | - |
* Rain latest hour (hover to see other rain measurements)
** Current wind speed in m/s (hover to see current wind gust speed)